星链-34251 (STARLINK-34251)

导读

STARLINK-34251是美国太空探索技术公司Starlink星座的一颗卫星,于2025年6月5日成功发射升空,归属美国所有。作为星链网络的组成部分,它主要为全球范围内用户提供低延迟、高速率的宽带互联网服务,覆盖偏远地区等传统网络难以触达的区域,助力全球互联网络的覆盖拓展。

基本信息
目录编号:
64205
目录名称:
STARLINK-34251
国际标识:
2025-117C
轨道中心:
EARTH
卫星名称:
星链-34251
卫星全名:
星链-34251 (STARLINK-34251)
卫星状态:
在轨 (已飞行461 天)
发射日期:
2025-05-31 UTC
国别 :
美国 (US)
星等 :
--
轨道信息
数据来源 国际轨道数据
星历时间: 2026-09-02T21:15:54+0800
1天前
查看轨道信息
半长轴: 6840.819km
偏心率: 0.0001354
轨道倾角: 53.159°
近地点辐角 81.948°
升交点赤经 295.300°
平近点角 278.167°
近地点: 461.755km
远地点: 463.609km
周期: 93.847分钟
每日圈数: 15.344072
详细信息
固有亮度:
5
最大亮度:
2.5
卫星平台:
Starlink V1.0
覆盖范围:
全球
运营商:
太空探索技术公司
运营商所在国:
美国
制造商(研发单位):
太空探索技术公司
制造商所在国:
美国
使用方式:
暂无
卫星简介
Starlink 计划是 SpaceX 推出的全球卫星互联网项目,通过发射低轨道卫星,为全球尤其是偏远地区提供高速、低延迟的互联网服务。自 2019 年起,Starlink 已部署数千颗卫星,旨在缩小全球数字鸿沟,推动互联网普及。该项目还为军事、航空等行业提供通信支持,带来广泛经济效益。
2D轨道图
3D轨道图
轨道高度分析图
轨道倾角分析图
轨道综合分析图
查看轨道综合分析图
交会数据列表
事件ID 空间交会对象 最接近时刻(TCA) 交会距离 交会风险概率(CRP) 交会风险指数(CRI) 操作
CDM_260904-194106-420506-428221
2026-09-04T
19:41:59+0000
0.291 km
中距离
4.002145E-4 高风险 0.87
CDM_260904-180806-420506-428221
2026-09-04T
18:08:12+0000
1.018 km
极远距离
1.61552E-5 中风险 0.59
CDM_260904-211506-420506-428221
2026-09-04T
21:15:47+0000
1.546 km
极远距离
3.938411E-6 低风险 0.47
CDM_260904-163406-420506-428221
2026-09-04T
16:34:25+0000
2.261 km
极远距离
1.447084E-6 低风险 0.38
CDM_260828-174006-420506-619321
2026-08-28T
17:40:50+0000
2.875 km
极远距离
1.244117E-6 低风险 0.37
CDM_260828-182205-324706-420522
2026-08-28T
18:22:48+0000
2.935 km
极远距离
1.232338E-6 低风险 0.37
CDM_260903-043505-209606-420521
2026-09-03T
04:35:13+0000
2.485 km
极远距离
1.045735E-6 低风险 0.35
CDM_260904-224906-420506-428221
2026-09-04T
22:49:34+0000
2.841 km
极远距离
9.913814E-7 极低风险 0.35